Location: Carlisle
(34.5501°N, 84.5969°W)
Time: 22:05:08
(UTC+00:00)

Hubble Space Telescope - Pass Details

Date: 30 November 2021
Orbit: 534 x 538 km, 28.5° (Epoch: 18 January)

Event Time Altitude Azimuth Distance (km) Brightness Sun altitude
Exits shadow 10:35:01 33° 194° (SSW) 896 1.8 -22.5°
Maximum altitude 10:35:20 34° 184° (S) 886 1.9 -22.4°
Drops below altitude 10° 10:39:04 10° 118° (ESE) 1,775 4.5 -21.7°
Sets 10:41:28 0° 109° (ESE) 2,665 5.8 -21.2°
